ONEWEB-0044, 45150

Orbit data source: Space-Track

ONEWEB-0044, 45150 is a payload satellite owned by One Web (UK) in LEO that was launched on Thu, 06 Feb 2020 UTC via a SOYUZ-2-1B launch vehicle from the Tyuratam Missile And Space Complex (TTMTR). Payload-class satellites include a variety of spacecraft equipped with specific instruments for various scientific and technological missions. These include communications satellites like Starlink; space stations such as the ISS; scientific satellites like the Hubble; Earth observation satellites from companies like Planet Labs, Umbra, and HawkEye 360; GPS; miniature CubeSats for education and research; and military/defense satellites.

Loading next visibility...
Identifier
45150, 2020-008V
Orbit
LEO
Country
Flag of UKUK
Related business
Manufacturer
One Web
Mission
Operational Commercial Communications
Bus & Motor
ARROW, Unknown motor
Mass
148 kg wet, ~140 kg dry
Launch date (UTC)
2020-02-06 (6 years ago)
Launch vehicle
SOYUZ-2-1B
Launch site
Tyuratam Missile And Space Complex (TTMTR)
Object type
Payload
Rocket body
Debris
Shape & HBR
Trap Box + 2 Pan, 6.7 m
Radar Cross Section
3.464 m², Large (>1 m²)

Expand to show TLE details & history
Last TLE update: 16 hours ago

TLE from 16 hours ago
0 ONEWEB-0044
1 45150U 20008V   25287.20826348  .00000441  00000-0  12273-2 0  9998
2 45150  87.8755  85.2985 0001420  84.0859 276.0430 13.10370801276264
Epoch: 2025-10-14T04:59Z
TLE epoch observation values (Epoch: 2025-10-14T04:59:53.964Z)
Latitude
-0.00005°
Longitude
-12.67634°
Altitude
1,224.499 km
Speed
7.242 km/s
True Right ascension
05h 41m 11s
True Declination
0° 00' 00"
Sunlit
Object was in daylight at epoch
Visualization orbit readout
Latitude
Unknown
Longitude
Unknown
Altitude
Unknown
Speed
Unknown
Apparent Right ascension
Unknown
Apparent Declination
Unknown
Sunlit
N/A
Visualization observer readout
Local Sidereal Time
15:41:52
Azimuth
Unknown
Elevation
Unknown
Doppler factor
Unknown
Orbital elements
Apogee altitude
1,219.924 km
Perigee altitude
1,217.766 km
Semi-major axis
7,596.982 km
Eccentricity
0.00014
Inclination
87.8755°
RAAN
85.2985°
Arg. of periapsis
84.0859°
True anomaly
276.02682°
Mean anomaly
276.043°
Eccentric anomaly
276.03491°
Mean motion
3.27779 °/min
Orbital period
109.83 mins
BSTAR
0.0012273
Loading maneuver chart data...
Computing Atmospheric mass density...
Loading historical data...
Loading historical data...
Loading historical data...
Loading historical data...
Loading historical data...
Loading historical data...
Loading historical data...

Documentation

Showing up to 5 results
|